Hazlehurst, GA

6:02 PM EST on December 13, 2017 (GMT -0500)
Hazlehurst

Weather History for KAZE - April, 2014

Change the Weather History Date:

Sunday, April 27, 2014

  Actual Average Record
Temperature  
Mean Temperature 74 °F -  
Max Temperature 85 °F 70 °F 90 °F (2017)
Min Temperature 62 °F 44 °F 52 °F (2013)
Cooling Degree Days 8    
Growing Degree Days 24 (Base 50)    
Moisture  
Dew Point 63 °F    
Average Humidity 73    
Maximum Humidity 97    
Minimum Humidity 44    
Precipitation  
Precipitation 0.00 in - - ()
Sea Level Pressure  
Sea Level Pressure 29.97 in    
Wind  
Wind Speed 4 mph (South)    
Max Wind Speed 8 mph    
Max Gust Speed -    
Visibility 9 miles    
Events      
Averages and records for this station are not official NWS values.
T = Trace of Precipitation, MM = Missing Value Source: NWS Daily Summary

Daily Weather History Graph

Daily Weather History Graph

Search for Another Location

Airport or City:

Trip Planner

Search our weather history database for the weather conditions in past years. The results will help you decide how hot, cold, wet, or windy it might be!

Date:

Astronomy

Apr. 27, 2014 Rise Set
Actual Time 6:48 AM EDT 8:08 PM EDT
Civil Twilight 6:23 AM EDT 8:33 PM EDT
Nautical Twilight 5:52 AM EDT 9:04 PM EDT
Astronomical Twilight 5:20 AM EDT 9:36 PM EDT
Moon 5:41 AM EDT (4/27) 6:45 PM EDT (4/27)
Length of Visible Light 14h 10m
Length of Day
13h 19m
Waning Crescent, 3% of the Moon is Illuminated
Apr 27
Waning Crescent
Apr 29
New
May 6
First Quarter
May 14
Full
May 21
Last Quarter

Hourly Weather History & Observations

Time (EDT) Temp. Heat Index Dew Point Humidity Pressure Visibility Wind Dir Wind Speed Gust Speed Precip Events Conditions
12:15 AM 67.3 °F - 61.0 °F 80% 30.00 in 10.0 mi SSE 4.6 mph - N/A   Clear
12:35 AM 66.9 °F - 61.3 °F 82% 30.00 in 10.0 mi SSE 5.8 mph - N/A   Clear
12:55 AM 66.4 °F - 61.3 °F 84% 30.00 in 10.0 mi South 5.8 mph - N/A   Clear
1:15 AM 65.7 °F - 61.5 °F 86% 29.99 in 10.0 mi Calm Calm - N/A   Clear
1:35 AM 65.3 °F - 61.7 °F 88% 29.99 in 10.0 mi South 5.8 mph - N/A   Clear
1:55 AM 65.1 °F - 61.9 °F 89% 29.99 in 7.0 mi South 8.1 mph - N/A   Clear
2:15 AM 64.6 °F - 61.9 °F 91% 29.98 in 7.0 mi South 5.8 mph - N/A   Clear
2:35 AM 64.2 °F - 61.7 °F 91% 29.98 in 7.0 mi South 5.8 mph - N/A   Clear
2:55 AM 63.9 °F - 61.7 °F 93% 29.97 in 7.0 mi SSE 5.8 mph - N/A   Clear
3:15 AM 63.9 °F - 61.3 °F 91% 29.97 in 7.0 mi South 5.8 mph - N/A   Clear
3:35 AM 63.5 °F - 61.3 °F 93% 29.97 in 10.0 mi South 4.6 mph - N/A   Clear
3:55 AM 63.1 °F - 61.5 °F 94% 29.97 in 7.0 mi South 3.5 mph - N/A   Clear
4:15 AM 63.0 °F - 61.3 °F 94% 29.97 in 7.0 mi South 4.6 mph - N/A   Clear
4:35 AM 62.8 °F - 61.3 °F 95% 29.97 in 5.0 mi South 3.5 mph - N/A   Clear
4:55 AM 62.4 °F - 61.3 °F 96% 29.98 in 5.0 mi South 3.5 mph - N/A   Clear
5:15 AM 62.2 °F - 61.3 °F 97% 29.98 in 5.0 mi South 3.5 mph - N/A   Clear
5:35 AM 62.4 °F - 61.7 °F 97% 29.98 in 7.0 mi South 4.6 mph - N/A   Clear
5:55 AM 62.4 °F - 61.7 °F 97% 29.98 in 7.0 mi South 3.5 mph - N/A   Clear
6:15 AM 62.6 °F - 61.7 °F 97% 29.98 in 7.0 mi South 3.5 mph - N/A   Clear
6:35 AM 62.6 °F - 61.7 °F 97% 29.98 in 5.0 mi South 3.5 mph - N/A   Clear
6:55 AM 62.6 °F - 61.7 °F 97% 29.99 in 5.0 mi South 3.5 mph - N/A   Clear
7:15 AM 62.6 °F - 61.7 °F 97% 30.00 in 7.0 mi South 4.6 mph - N/A   Clear
7:35 AM 63.0 °F - 61.9 °F 96% 30.00 in 10.0 mi South 4.6 mph - N/A   Clear
7:55 AM 64.0 °F - 62.2 °F 94% 30.01 in 7.0 mi South 3.5 mph - N/A   Clear
8:15 AM 65.3 °F - 62.8 °F 92% 30.02 in 10.0 mi SSW 4.6 mph - N/A   Clear
8:35 AM 67.5 °F - 63.1 °F 86% 30.02 in 10.0 mi SSW 3.5 mph - N/A   Clear
8:55 AM 68.9 °F - 63.3 °F 82% 30.03 in 10.0 mi SSW 3.5 mph - N/A   Clear
9:15 AM 70.3 °F - 64.0 °F 80% 30.03 in 10.0 mi SSW 3.5 mph - N/A   Clear
9:35 AM 72.3 °F - 64.8 °F 77% 30.03 in 10.0 mi Calm Calm - N/A   Clear
9:55 AM 74.3 °F - 65.3 °F 73% 30.03 in 10.0 mi Calm Calm - N/A   Scattered Clouds
10:15 AM 75.9 °F - 65.3 °F 70% 30.03 in 10.0 mi Calm Calm - N/A   Clear
10:35 AM 77.4 °F - 65.8 °F 67% 30.03 in 10.0 mi Calm Calm - N/A   Clear
10:55 AM 78.1 °F - 65.1 °F 64% 30.03 in 10.0 mi South 4.6 mph - N/A   Clear
11:15 AM 78.8 °F - 64.6 °F 62% 30.02 in 10.0 mi South 3.5 mph - N/A   Clear
11:35 AM 79.7 °F - 64.9 °F 61% 30.03 in 10.0 mi SSE 4.6 mph - N/A   Clear
11:55 AM 80.6 °F 82.4 °F 64.9 °F 59% 30.02 in 10.0 mi WSW 3.5 mph - N/A   Clear
12:15 PM 81.5 °F 82.8 °F 63.3 °F 54% 30.01 in 10.0 mi SSW 3.5 mph - N/A   Mostly Cloudy
12:30 PM 81.9 °F 82.8 °F 62.2 °F 51% 30.01 in 10.0 mi South 3.5 mph - N/A   Mostly Cloudy
12:55 PM 82.6 °F 83.4 °F 62.4 °F 50% 29.99 in 10.0 mi SE 4.6 mph - N/A   Scattered Clouds
1:35 PM 82.8 °F 83.3 °F 61.2 °F 48% 29.98 in 10.0 mi SSE 4.6 mph - N/A   Mostly Cloudy
1:55 PM 82.6 °F 83.1 °F 61.3 °F 48% 29.98 in 10.0 mi South 3.5 mph - N/A   Mostly Cloudy
2:15 PM 82.8 °F 83.4 °F 61.5 °F 49% 29.97 in 10.0 mi SE 5.8 mph - N/A   Mostly Cloudy
2:35 PM 83.5 °F 83.7 °F 60.8 °F 46% 29.97 in 10.0 mi SSW 4.6 mph - N/A   Scattered Clouds
2:55 PM 84.6 °F 85.0 °F 61.5 °F 46% 29.97 in 10.0 mi South 5.8 mph - N/A   Scattered Clouds
3:15 PM 85.1 °F 85.4 °F 61.7 °F 45% 29.95 in 10.0 mi SSW 6.9 mph - N/A   Scattered Clouds
3:35 PM 85.6 °F 85.9 °F 61.5 °F 44% 29.94 in 10.0 mi ESE 4.6 mph - N/A   Mostly Cloudy
3:55 PM 85.5 °F 85.7 °F 61.3 °F 44% 29.93 in 10.0 mi Calm Calm - N/A   Scattered Clouds
4:15 PM 85.5 °F 85.7 °F 61.0 °F 44% 29.93 in 10.0 mi SSW 3.5 mph - N/A   Scattered Clouds
4:35 PM 85.3 °F 85.4 °F 61.3 °F 44% 29.92 in 10.0 mi SSW 5.8 mph - N/A   Scattered Clouds
4:55 PM 85.8 °F 86.3 °F 62.2 °F 45% 29.92 in 10.0 mi SSE 5.8 mph - N/A   Scattered Clouds
5:15 PM 85.1 °F 85.4 °F 61.5 °F 45% 29.92 in 10.0 mi SSW 5.8 mph - N/A   Clear
5:35 PM 84.4 °F 84.8 °F 61.7 °F 46% 29.92 in 10.0 mi South 4.6 mph - N/A   Clear
6:15 PM 84.0 °F 84.5 °F 62.1 °F 47% 29.92 in 10.0 mi South 3.5 mph - N/A   Scattered Clouds
6:35 PM 84.2 °F 85.0 °F 62.8 °F 48% 29.91 in 10.0 mi Calm Calm - N/A   Clear
6:55 PM 83.5 °F 84.7 °F 63.7 °F 51% 29.91 in 10.0 mi Calm Calm - N/A   Mostly Cloudy
7:15 PM 82.6 °F 84.3 °F 64.8 °F 55% 29.92 in 10.0 mi Calm Calm - N/A   Mostly Cloudy
7:35 PM 81.9 °F 83.5 °F 64.6 °F 56% 29.91 in 10.0 mi Calm Calm - N/A   Scattered Clouds
7:55 PM 80.6 °F 82.4 °F 65.1 °F 59% 29.92 in 10.0 mi Calm Calm - N/A   Scattered Clouds
8:15 PM 78.4 °F - 66.2 °F 66% 29.92 in 10.0 mi Calm Calm - N/A   Mostly Cloudy
8:35 PM 76.6 °F - 67.6 °F 74% 29.93 in 10.0 mi Calm Calm - N/A   Mostly Cloudy
8:55 PM 75.4 °F - 67.8 °F 77% 29.93 in 10.0 mi Calm Calm - N/A   Scattered Clouds
9:15 PM 74.1 °F - 67.3 °F 79% 29.94 in 10.0 mi Calm Calm - N/A   Clear
9:35 PM 72.5 °F - 67.1 °F 83% 29.94 in 10.0 mi Calm Calm - N/A   Clear
9:55 PM 71.8 °F - 67.5 °F 86% 29.94 in 7.0 mi Calm Calm - N/A   Clear
10:15 PM 71.4 °F - 67.3 °F 87% 29.95 in 10.0 mi SE 3.5 mph - N/A   Clear
10:35 PM 73.6 °F - 66.7 °F 79% 29.95 in 10.0 mi SSE 5.8 mph - N/A   Clear
10:55 PM 74.3 °F - 66.6 °F 77% 29.94 in 10.0 mi SE 6.9 mph - N/A   Clear
11:15 PM 74.3 °F - 66.4 °F 76% 29.94 in 10.0 mi SE 4.6 mph - N/A   Clear
11:35 PM 73.6 °F - 66.2 °F 78% 29.95 in 10.0 mi SSE 4.6 mph - N/A   Clear
11:55 PM 72.9 °F - 66.2 °F 80% 29.96 in 10.0 mi SSE 4.6 mph - N/A   Clear